Preview of NWS' New Version of Forecast
This preview is not operational and should not be used for support decisions.

Regional Weather Roundup (RWR)

Issued by Gray - Portland, ME (GYX)

                            
000
ASUS41 KGYX 261510
RWRGYX
WEATHER ROUNDUP FOR MAINE AND NEW HAMPSHIRE
NATIONAL WEATHER SERVICE GRAY ME
1100 AM EDT SAT MAY 26 2018

MEZ002-005-006-010-012-015-018-020-021-024-026-027-029-261600-
MAINE
  
CITY           SKY/WX    TMP DP  RH WIND       PRES   REMARKS
PORTLAND       CLOUDY    70  62  76 S3        29.72S                  
SANFORD        FAIR      75  59  57 CALM      29.74S                  
BAR HARBOR     CLOUDY    71  60  68 NW6       29.71R                  
WISCASSET      CLOUDY    66  64  93 CALM      29.74R                  
ROCKLAND       LGT RAIN  67  63  87 W6        29.72S                  
FRYEBURG       FAIR      73  60  63 W6        29.74S                  
LEWISTONAUBURN FAIR      69  61  75 CALM      29.72F                  
AUGUSTA        CLOUDY    66  63  90 SW3       29.73R                  
WATERVILLE     LGT RAIN  68  64  87 SW5       29.71R                  
BANGOR         CLOUDY    70  63  78 NW3       29.71R                  
GREENVILLE       N/A     64  58  80 N10       29.72R                  
MILLINOCKET    PTSUNNY   69  56  62 NE7       29.72R                  
HOULTON        FAIR      64  52  64 N16G22    29.71R                  
PRESQUE ISLE   FAIR      62  42  47 N17       29.76R                  
FRENCHVILLE    FAIR      61  34  36 NW17G26   29.76R                  
CARIBOU        FAIR      64  41  42 N13G23    29.74R                  
$$

NHZ002-005-008-009-011-012-014-261600-
NEW HAMPSHIRE
  
CITY           SKY/WX    TMP DP  RH WIND       PRES   REMARKS
PORTSMOUTH     CLOUDY    83  55  37 W10       29.71S                  
ROCHESTER      FAIR      77  58  51 W5        29.73S                  
NASHUA         FAIR      85  57  38 W9        29.75S                  
MANCHESTER     CLOUDY    86  52  30 W8        29.74R                  
CONCORD        FAIR      80  56  43 W7        29.75R                  
LACONIA        FAIR      75  57  53 W8        29.76R                  
PLYMOUTH       FAIR      74  54  48 W5        29.76R                  
BERLIN         LGT RAIN  66  61  84 NW5       29.77R                  
WHITEFIELD     LGT RAIN  68  62  81 S3        29.78R                  
JAFFREY        FAIR      80  52  37 SW9       29.81R                  
KEENE          FAIR      82  56  40 S8        29.78S                  
LEBANON        FAIR      80  56  43 N5        29.76R                  
MT WASHINGTON  LGT RAIN  48  48 100 NW48G56     N/A  VSB 0            
$$

VTZ005-007-008-261600-
VERMONT
  
CITY           SKY/WX    TMP DP  RH WIND       PRES   REMARKS
ST JOHNSBURY     N/A     65  64  97 MISG      29.77R                  
MONTPELIER     LGT RAIN  66  65  96 CALM      29.84R                  
BURLINGTON     PTSUNNY   71  59  65 CALM      29.77S                  
$$

MAZ007-012-024-CTZ003-RIZ002-NYZ038-NYZ072-261600-
SOUTHERN NEW ENGLAND AND NY
  
CITY           SKY/WX    TMP DP  RH WIND       PRES   REMARKS
WORCESTER      FAIR      76  56  49 W14       29.81S                  
NANTUCKET      FAIR      64  59  83 SW18G24   29.83R                  
PROVIDENCE     FAIR      87  60  40 W8        29.79S                  
HARTFORD       PTSUNNY   87  59  38 W6        29.78F                  
ALBANY         PTSUNNY   81  55  40 W6        29.80R                  
NEW YORK CITY  PTSUNNY   84  64  50 NW6       29.82S                  
$$

ANZ081-ANZ082-ANZ150-NHZ014-MEZ023>029-261600-
COASTAL MARINE OBSERVATIONS
  
STATION/POSITION TIME  TEMP    WIND        PRES    WAVE
                       AIR SEA DIR/SP/G            HT/PER
                 (UTC) (F)     (DEG/KT/KT) (MB)    (FT/S)
MOUNT DESERT ROC 1500   53     250/ 18/ 18 1006.3R
MATINICUS ROCK   1500   54     280/ 16/ 17 1006.4R
ISLE OF SHOALS   1500   75     270/  7/  7 1006.4R
JEFFREYS LEDGE   1436      55                N/A     3/ 6
$$

.............KEY..............
   WCI - WIND CHILL
   TC  - TEMPERATURE IN CELSIUS
   VSB - VISIBILITY IN MILES
   HX  - HEAT INDEX
   FAIR- INDICATES FEW OR NO CLOUDS BELOW 12,000 FT, WITH NO 
         SIGNIFICANT WEATHER AND/OR OBSTRUCTIONS TO VISIBILITY.